Weather History for Siloam Springs, AR

Change the Weather History Date:

Saturday, January 19, 2013

  Actual Average Record
Temperature  
Mean Temperature 52 °F -  
Max Temperature 62 °F 44 °F 68 °F (2006)
Min Temperature 41 °F 27 °F 10 °F (2008)
Degree Days  
Heating Degree Days 14    
Growing Degree Days 2 (Base 50)    
Moisture  
Dew Point 30 °F    
Average Humidity 48    
Maximum Humidity 61    
Minimum Humidity 36    
Precipitation  
Precipitation 0.00 in - - ()
Sea Level Pressure  
Sea Level Pressure 30.18 in    
Wind  
Wind Speed 13 mph (SSW)    
Max Wind Speed 20 mph    
Max Gust Speed 25 mph    
Visibility 10 miles    
Events      
Averages and records for this station are not official NWS values.
T = Trace of Precipitation, MM = Missing Value Source: NWS Daily Summary

Daily Weather History Graph

Daily Weather History Graph

Search for Another Location

Airport:

Trip Planner

Search our weather history database for the weather conditions in past years. The results will help you decide how hot, cold, wet, or windy it might be!

Date:

Astronomy

Jan. 19, 2013 Rise Set
Actual Time 7:26 AM CST 5:31 PM CST
Civil Twilight 6:59 AM CST 5:58 PM CST
Nautical Twilight 6:27 AM CST 6:30 PM CST
Astronomical Twilight 5:56 AM CST 7:01 PM CST
Moon 11:55 AM CST (1/19) 1:04 AM CST (1/19)
Length of Visible Light 10h 59m
Length of Day
10h 04m
First Quarter, 57% of the Moon is Illuminated
Jan 19
First Quarter
Jan 26
Full
Feb 3
Last Quarter
Feb 10
New
Feb 17
First Quarter

Hourly Weather History & Observations

Time (CST) Temp. Windchill Dew Point Humidity Pressure Visibility Wind Dir Wind Speed Gust Speed Precip Events Conditions
12:15 AM 42.8 °F 35.4 °F 24.8 °F 49% 30.22 in 10.0 mi SSW 15.0 mph - N/A   Clear
12:35 AM 42.8 °F 34.5 °F 24.8 °F 49% 30.22 in 10.0 mi South 18.4 mph 21.9 mph N/A   Clear
1:15 AM 42.8 °F 35.1 °F 24.8 °F 49% 30.21 in 10.0 mi South 16.1 mph 20.7 mph N/A   Clear
1:35 AM 42.8 °F 34.8 °F 24.8 °F 49% 30.21 in 10.0 mi South 17.3 mph - N/A   Clear
1:56 AM 42.8 °F 34.8 °F 24.8 °F 49% 30.21 in 10.0 mi South 17.3 mph - N/A   Clear
2:15 AM 42.8 °F 35.4 °F 24.8 °F 49% 30.21 in 10.0 mi South 15.0 mph 21.9 mph N/A   Clear
2:35 AM 42.8 °F 35.8 °F 24.8 °F 49% 30.21 in 10.0 mi South 13.8 mph 20.7 mph N/A   Clear
3:15 AM 41.0 °F 33.9 °F 24.8 °F 53% 30.20 in 10.0 mi South 12.7 mph - N/A   Clear
3:35 AM 41.0 °F 32.8 °F 24.8 °F 53% 30.19 in 10.0 mi South 16.1 mph - N/A   Clear
3:55 AM 42.8 °F 34.8 °F 26.6 °F 53% 30.18 in 10.0 mi South 17.3 mph - N/A   Clear
4:35 AM 42.8 °F 34.8 °F 26.6 °F 53% 30.17 in 10.0 mi South 17.3 mph - N/A   Clear
4:55 AM 42.8 °F 35.4 °F 26.6 °F 53% 30.17 in 10.0 mi South 15.0 mph 24.2 mph N/A   Clear
5:35 AM 42.8 °F 35.4 °F 26.6 °F 53% 30.18 in 10.0 mi South 15.0 mph - N/A   Clear
6:15 AM 42.8 °F 35.8 °F 26.6 °F 53% 30.18 in 10.0 mi South 13.8 mph - N/A   Clear
6:35 AM 41.0 °F 33.9 °F 26.6 °F 57% 30.17 in 10.0 mi South 12.7 mph - N/A   Clear
6:55 AM 41.0 °F 33.5 °F 26.6 °F 57% 30.17 in 10.0 mi South 13.8 mph - N/A   Clear
7:35 AM 42.8 °F 35.8 °F 26.6 °F 53% 30.17 in 10.0 mi South 13.8 mph - N/A   Clear
8:15 AM 42.8 °F 35.8 °F 28.4 °F 57% 30.18 in 10.0 mi South 13.8 mph - N/A   Clear
8:35 AM 44.6 °F 38.4 °F 28.4 °F 53% 30.18 in 10.0 mi South 12.7 mph 19.6 mph N/A   Clear
8:55 AM 46.4 °F 39.5 °F 28.4 °F 50% 30.19 in 10.0 mi SSW 17.3 mph 23.0 mph N/A   Clear
9:35 AM 48.2 °F - 30.2 °F 50% 30.20 in 10.0 mi SSW 15.0 mph 25.3 mph N/A   Clear
9:55 AM 51.8 °F - 30.2 °F 44% 30.21 in 10.0 mi SSW 16.1 mph - N/A   Clear
10:15 AM 51.8 °F - 32.0 °F 47% 30.21 in 10.0 mi SSW 17.3 mph 23.0 mph N/A   Clear
10:16 AM 51.8 °F - 32.0 °F 47% 30.21 in 10.0 mi SSW 16.1 mph 23.0 mph N/A   Clear
10:35 AM 53.6 °F - 32.0 °F 44% 30.21 in 10.0 mi SSW 15.0 mph - N/A   Clear
10:55 AM 53.6 °F - 33.8 °F 47% 30.20 in 10.0 mi SSW 17.3 mph - N/A   Clear
11:35 AM 57.2 °F - 33.8 °F 41% 30.18 in 10.0 mi SSW 15.0 mph 25.3 mph N/A   Clear
11:55 AM 59.0 °F - 35.6 °F 42% 30.17 in 10.0 mi SW 13.8 mph 20.7 mph N/A   Clear
12:15 PM 59.0 °F - 33.8 °F 39% 30.16 in 10.0 mi SW 19.6 mph 24.2 mph N/A   Clear
12:55 PM 60.8 °F - 35.6 °F 39% 30.14 in 10.0 mi SSW 17.3 mph - N/A   Clear
1:55 PM 60.8 °F - 35.6 °F 39% 30.11 in 10.0 mi SSW 17.3 mph - N/A   Clear
2:15 PM 62.6 °F - 35.6 °F 37% 30.11 in 10.0 mi SSW 17.3 mph 24.2 mph N/A   Clear
2:35 PM 62.6 °F - 35.6 °F 37% 30.11 in 10.0 mi SW 12.7 mph - N/A   Clear
2:56 PM 62.6 °F - 35.6 °F 37% 30.10 in 10.0 mi SSW 15.0 mph - N/A   Clear
3:15 PM 62.6 °F - 35.6 °F 37% 30.11 in 10.0 mi SSW 15.0 mph - N/A   Clear
3:35 PM 62.6 °F - 35.6 °F 37% 30.11 in 10.0 mi WSW 13.8 mph - N/A   Clear
4:35 PM 60.8 °F - 33.8 °F 36% 30.11 in 10.0 mi SW 10.4 mph - N/A   Clear
4:55 PM 60.8 °F - 33.8 °F 36% 30.12 in 10.0 mi SW 9.2 mph - N/A   Clear
5:15 PM 57.2 °F - 33.8 °F 41% 30.13 in 10.0 mi WSW 9.2 mph - N/A   Clear
5:55 PM 53.6 °F - 32.0 °F 44% 30.12 in 10.0 mi SSW 8.1 mph - N/A   Clear
6:16 PM 53.6 °F - 32.0 °F 44% 30.14 in 10.0 mi West 5.8 mph - N/A   Clear
6:35 PM 50.0 °F - 30.2 °F 47% 30.16 in 10.0 mi WNW 5.8 mph - N/A   Clear
7:15 PM 50.0 °F - 32.0 °F 50% 30.18 in 10.0 mi West 4.6 mph - N/A   Clear
7:16 PM 50.0 °F - 32.0 °F 50% 30.18 in 10.0 mi West 3.5 mph - N/A   Clear
7:35 PM 48.2 °F - 32.0 °F 54% 30.18 in 10.0 mi Calm Calm - N/A   Clear
7:55 PM 48.2 °F - 32.0 °F 54% 30.19 in 10.0 mi Calm Calm - N/A   Clear
8:15 PM 48.2 °F - 32.0 °F 54% 30.19 in 10.0 mi WSW 3.5 mph - N/A   Clear
8:35 PM 48.2 °F - 32.0 °F 54% 30.20 in 10.0 mi Calm Calm - N/A   Clear
8:55 PM 46.4 °F 45.2 °F 30.2 °F 53% 30.20 in 10.0 mi SW 3.5 mph - N/A   Clear
9:15 PM 46.4 °F 45.2 °F 30.2 °F 53% 30.20 in 10.0 mi SSW 3.5 mph - N/A   Clear
9:55 PM 46.4 °F 44.3 °F 30.2 °F 53% 30.21 in 10.0 mi SSW 4.6 mph - N/A   Clear
10:15 PM 46.4 °F 45.2 °F 30.2 °F 53% 30.21 in 10.0 mi South 3.5 mph - N/A   Clear
10:55 PM 44.6 °F 43.1 °F 30.2 °F 57% 30.21 in 10.0 mi South 3.5 mph - N/A   Clear
11:15 PM 42.8 °F - 30.2 °F 61% 30.22 in 10.0 mi Calm Calm - N/A   Clear
11:35 PM 42.8 °F 41.1 °F 30.2 °F 61% 30.21 in 10.0 mi South 3.5 mph - N/A   Clear